Starlink 33802

operational
NORAD ID: 64392 Int'l Des: 2025-127 Owner: SPXS Country: US Constellation: starlink
LEOCIRCULAR

About Starlink 33802

Description loading...

Live Position

Loading 3D Globe...

Upcoming Passes

Altitude History

Altitude vs Time

uPlot chart will show altitude changes over time

Two-Line Element Set

1 64392U 25127Y 26102.10483742 .00014863 00000-0 54858-3 0 9996
2 64392 43.0018 351.4074 0001686 261.2498 98.8163 15.27577753 47622
Epoch: Apr 12, 2026 • Age: 17 hours

Current Status

Altitude 491.1 km
Velocity 7.62 km/s
Sub-Earth Point -32.33°S, 170.63°E
Launch Date Jun 13, 2025
Age 0.8 years
Type internet

Technical Details

Classification Payload
Mass 575.00 kg
Dry Mass 530.00 kg
Total Mass 575.00 kg
Length 0.30 m
Diameter 4.10 m
Span 29.00 m
Shape Box + pan
Manufacturer SPXS
Bus Type Starlink V2MO
Phase Status In Orbit
Owner/State SPXS/US

Large Constellations

Loading constellations...